CAPE
1762 1852 1489 1806 1814 1695 1679 1662 1603 1656 1600 1554 1497 1479 1554 1606 1561 1538 1506 1468 1380 1347 1477 1516 1558 1425 1592 1882 1848 1844 1862 1755 1703 1761 1739 1708 1753 1765 1698 1657 1552 1623 1441 1384 1310 1326 1235 1141 1067 1002 925 930 990 930 926 733 558 398 347 414 494 472 372 252 268 334 385 480 522 547 571 563 653 587 600 729 858 775 766 548 313 236 236 342 291
1483 1622 1550 1643 1850 1688 1636 1667 1638 1576 1613 1477 1357 1485 1501 1533 1606 1520 1412 1380 1333 1418 1486 1513 1441 1578 1849 1881 1822 1773 1781 1755 1730 1736 1773 1629 1696 1652 1700 1674 1657 1637 1562 1484 1314 1085 1094 991 834 700 632 674 650 783 822 614 567 540 552 356 207 182 180 268 342 482 546 496 390 404 516 545 529 481 600 620 524 471 473 431 384 218 232 304 289
1416 1164 1544 1740 1785 1636 1556 1603 1633 1608 1455 1172 1570 1483 1444 1495 1452 1437 1360 1283 1314 1379 1472 1526 1552 1768 1873 1832 1796 1735 1568 1738 1726 1647 1608 1630 1696 1786 1694 1635 1500 1430 1538 1368 1173 1067 906 652 434 320 359 428 501 466 373 349 414 414 367 378 319 127 195 461 590 528 474 515 635 594 571 525 467 491 540 434 435 428 436 403 296 285 301 350 258
1304 1148 1485 1580 1771 1640 1541 1512 1503 1464 1389 1344 1298 1352 1351 1468 1350 1346 1328 1331 1341 1378 1418 1536 1660 1690 1639 1598 1695 1583 1546 1680 1730 1696 1630 1635 1541 1696 1665 1683 1527 1531 1347 1274 1149 999 751 526 462 501 452 356 246 262 290 344 395 339 320 324 330 293 192 170 346 550 543 565 812 549 439 145 258 475 484 364 412 437 379 362 297 300 326 342 343
942 1192 1356 1391 1521 1587 1578 1460 1441 1358 1290 1308 1306 1341 1294 1283 1293 1315 1354 1369 1363 1377 1514 1699 1700 1751 1691 1678 1702 1676 1591 1628 1596 1694 1649 1550 1581 1448 1509 1564 1464 1430 1357 1270 1208 997 911 1018 1029 937 792 750 566 406 310 295 334 308 310 222 190 352 413 422 380 442 538 531 1154 767 48 102 223 427 400 355 408 382 331 299 346 421 363 266 282
1199 798 1025 1106 1211 1371 1516 1404 1390 1266 1182 1257 1202 1315 1321 1274 1310 1408 1447 1406 1407 1546 1599 1668 1746 1764 1722 1736 1686 1581 1645 1650 1683 1648 1696 1644 1516 1523 1426 1517 1426 1278 1405 1243 1136 1054 1070 1124 968 938 939 731 681 474 282 239 224 257 232 200 198 127 241 350 349 602 432 880 693 981 158 147 204 232 333 354 376 314 288 242 262 276 244 230 151
935 594 738 1078 1213 1403 1566 1438 1317 1257 1103 967 1117 1015 1122 1199 1260 1375 1365 1286 1430 1474 1597 1672 1755 1691 1655 1722 1766 1726 1841 1737 1703 1703 1678 1629 1555 1521 1451 1398 1322 1504 1398 1346 1133 1195 1195 1310 1190 1070 1015 923 844 680 366 300 256 223 148 142 119 183 107 290 395 404 781 580 791 1130 152 108 116 246 427 404 316 292 351 329 265 276 261 212 122
800 771 756 956 997 1306 1484 1266 1175 1118 1043 903 846 904 700 887 1101 1253 1258 1315 1462 1540 1582 1632 1653 1686 1711 1855 1923 1826 1854 1609 1685 1662 1614 1570 1546 1387 1435 1382 1439 1351 1293 1322 1180 1263 1308 1328 1309 1100 932 852 717 749 496 275 183 168 136 96 192 199 443 305 666 748 896 814 997 180 165 256 242 252 737 1080 949 644 658 589 552 487 346 174 130
876 891 981 1018 971 1199 1416 1256 1153 998 934 886 889 801 859 968 1078 1268 1356 1480 1592 1662 1650 1789 1816 1803 1905 1840 1752 1948 1871 1728 1692 1695 1672 1659 1602 1467 1263 1298 1386 1353 1346 1280 1246 1269 1215 1093 1122 939 764 763 611 489 635 354 218 132 118 113 119 298 370 651 722 935 1043 1165 919 594 495 458 349 337 742 1172 1184 1098 853 743 659 621 444 299 123
1082 1044 963 1036 952 1236 1402 1374 1169 967 934 882 945 907 934 1111 1271 1440 1586 1681 1675 1805 1874 1932 1933 2030 1922 1797 1912 1809 1820 1869 1765 1614 1638 1596 1528 1522 1484 1441 1378 1418 1318 1259 1213 1050 1022 1062 1083 870 681 728 628 460 608 597 321 215 125 215 333 272 423 587 759 884 673 420 871 810 987 682 432 467 774 970 956 911 773 771 658 640 603 521 384
1338 878 925 909 840 1450 1441 1362 1232 969 881 855 1014 963 1108 1243 1309 1550 1679 1868 1836 1854 1947 1996 1953 1758 1877 1839 1754 1789 1728 1684 1623 1612 1620 1537 1493 1374 1514 1471 1372 1293 1292 1211 993 963 1145 1000 918 802 839 622 751 744 452 692 506 344 414 195 266 375 513 627 732 514 211 237 371 905 1171 1022 562 644 916 733 663 688 551 482 434 311 275 255 261
1420 1186 928 830 1170 1424 1398 1268 1154 1078 964 926 972 1008 1113 1307 1521 1719 1920 2031 2031 2116 2014 1882 1843 1830 1850 1846 1778 1753 1533 1608 1609 1573 1564 1514 1444 1508 1451 1391 1317 1210 1224 1051 962 1140 1175 561 356 735 1012 1184 1225 1253 1138 878 633 677 406 578 414 598 718 949 732 651 265 340 668 557 537 484 474 597 778 674 566 498 443 370 282 197 145 112 61
1492 1343 988 630 858 1403 1378 1249 1093 1001 888 868 1019 1076 1253 1456 1500 1903 2084 2024 1979 1989 1934 1879 1789 1800 1723 1770 1735 1598 1558 1598 1563 1524 1504 1455 1262 1161 955 1002 1093 1000 945 964 919 659 694 791 590 1028 1255 1382 1397 1452 1394 976 892 862 886 801 780 860 845 1090 629 677 82 327 490 587 585 392 427 486 394 377 440 344 318 207 138 118 83 38 15
1465 1354 1092 627 725 1055 1308 1268 1168 1086 937 1081 1152 1366 1484 1564 1626 1934 2165 2076 1969 1928 1875 1810 1814 1784 1684 1734 1721 1624 1569 1549 1446 1424 1208 1138 1030 986 956 833 821 775 728 726 813 692 566 862 1011 1033 1369 1374 1493 1475 1403 1318 1074 1048 1028 1087 1058 1012 909 876 694 856 199 361 830 846 588 442 275 358 363 334 258 168 169 114 92 56 27 10 5
1309 1255 848 758 856 798 1084 1249 1214 1130 1321 1422 1575 1521 1535 1681 1859 2096 2108 2021 2012 1920 1909 1885 1851 1824 1759 1693 1691 1576 1506 1469 1446 1140 996 871 822 856 782 720 755 759 718 695 769 801 890 986 1116 1150 1156 1454 1416 1516 1463 1373 1246 1170 1308 1239 1199 1032 972 622 570 702 29 244 751 825 410 238 491 357 309 140 160 162 79 49 12 10 3 1 2
1296 1109 872 880 829 823 836 992 960 1285 1496 1578 1567 1533 1667 1819 2001 2039 2062 2080 1971 1916 1888 1842 1846 1752 1671 1599 1539 1532 1421 1314 1000 930 900 814 639 532 475 526 580 644 699 714 727 868 880 801 1036 1108 1392 1219 1512 1475 1519 1395 1368 1236 1314 1134 1202 836 1096 1018 824 1013 200 190 522 631 229 258 491 242 252 262 217 138 56 74 55 38 7 2 0
1252 1065 937 858 827 638 768 560 886 1350 1401 1482 1747 1842 1908 1972 1966 2019 2064 2032 2004 1921 1899 1885 1794 1735 1641 1621 1520 1440 1329 1160 1089 1008 925 830 608 424 279 400 529 532 562 604 657 645 858 892 768 1227 1376 1390 1299 1570 1404 1506 1349 1390 933 1309 866 1134 1157 1336 881 834 198 102 492 310 121 153 272 225 155 208 244 124 85 90 62 98 73 19 0
1214 992 949 872 946 810 796 690 843 923 1361 1684 1867 1774 1912 2008 1946 2004 1977 1921 1902 1907 1867 1875 1844 1757 1712 1672 1578 1423 1270 1136 1005 1003 942 807 734 642 493 334 374 422 446 526 610 631 650 810 818 800 1383 1335 1324 1356 1526 1233 1373 1268 1053 1223 1194 1107 1180 1440 1019 735 37 437 530 516 357 222 176 161 219 237 79 78 93 183 206 206 185 78 5
1080 1022 941 978 888 907 653 671 716 624 737 1249 1344 1514 1601 1822 1960 1899 1907 1894 1896 1906 1934 1922 1890 1818 1706 1631 1443 1329 1255 1228 1090 968 921 802 742 704 639 437 322 393 467 498 568 640 660 705 565 977 926 1475 1572 1409 1430 1487 1198 1247 1137 1238 1120 1388 1568 1304 817 990 154 676 612 496 177 450 265 267 297 212 163 124 372 272 235 64 87 46 1
1255 1078 993 996 928 735 702 870 774 790 736 677 1078 1240 1586 1878 1958 1882 1954 1867 1922 1908 1851 1898 1940 1913 1703 1581 1539 1513 1214 1097 1084 953 848 1022 847 816 865 669 408 421 635 556 561 534 577 482 679 606 963 1006 1454 1665 1455 1453 1325 1160 1198 1437 1366 1288 914 882 1107 1066 280 410 322 384 385 398 363 282 231 221 136 154 226 218 75 9 0 1 0
1356 1272 1132 1321 1014 750 1044 1145 1008 1034 824 777 1205 1322 1648 1858 1977 1924 1891 1924 1990 2038 1994 1993 2005 1893 1759 1632 1530 1236 1334 1275 1312 1037 1290 1080 1076 971 954 700 547 395 460 500 487 657 457 728 688 878 1178 1120 1326 1615 1557 1425 1444 1226 1445 1298 1312 1120 763 904 1102 64 11 318 371 173 493 384 292 216 166 110 143 123 205 72 19 4 0 0 0
1389 1297 1349 1319 1167 1213 1375 1284 1415 1217 754 727 954 1358 1662 1743 1789 1854 1813 1976 2077 2100 2096 1972 2027 1715 1636 1606 1696 1790 1721 1446 1716 1488 1046 848 980 1032 1035 983 801 560 454 438 534 484 821 579 823 642 966 1137 1448 1554 1547 1580 1482 1394 1361 1381 1239 682 956 1314 462 395 127 208 449 537 600 465 321 349 388 208 171 232 73 12 9 0 3 0 0
1372 1328 1342 1513 1570 1560 1593 1528 1540 1318 1025 860 822 1279 1468 1586 1638 1873 1919 1998 2079 2066 1976 2006 1850 1615 1401 1434 2056 1985 1966 1616 1805 1614 994 992 1038 1025 980 950 926 782 567 612 542 719 452 683 482 662 700 942 1062 1250 1595 1098 1227 1380 1563 1315 917 781 1139 1286 782 474 105 230 281 799 731 549 441 421 348 249 172 217 61 11 14 2 7 0 0
1463 1458 1367 1577 1545 1435 1733 1709 1593 1351 1088 824 790 980 1167 614 1524 1537 2017 2049 2131 2017 1963 1817 1838 1813 1718 1928 2343 1779 1701 1837 1293 1422 1721 1262 928 1023 971 1071 1092 1105 882 701 488 918 746 769 543 574 550 206 331 1173 1497 1210 1148 1145 910 838 1132 1223 1574 554 191 395 624 450 283 1196 950 576 629 501 519 436 248 227 79 51 62 29 2 0 0
1550 1573 1776 2022 1414 1452 1629 1796 1568 1484 1139 548 570 687 736 628 1152 1578 1837 1853 2075 2134 1770 1958 2082 1685 2019 2172 1672 1577 1569 1242 1632 1681 1427 1487 1178 1062 950 934 995 930 1225 1019 755 523 636 130 9 278 111 90 85 641 1169 1873 1537 1213 1010 1004 1017 1317 1104 770 792 399 297 249 684 1224 1128 845 664 748 695 498 277 277 120 50 125 48 14 0 0
1395 1446 1338 1316 1310 1659 1508 1239 1450 1388 1021 451 419 686 768 583 1058 1291 1448 1483 1438 1285 1261 1822 1799 1607 1603 1265 1569 1470 1397 1368 1531 1547 1492 1464 1682 1524 1135 1164 1191 1115 1261 1573 1275 720 563 478 0 0 0 0 8 217 894 1365 1231 1392 1202 1359 1389 1387 978 544 606 460 607 472 858 1534 1279 742 900 796 661 604 331 312 217 72 53 56 19 0 0
1363 1368 1343 1299 1281 1529 1499 1394 1260 1208 1068 720 547 479 423 704 979 1293 1240 1172 1234 1235 1307 1474 1476 1625 1769 1714 1526 1530 1766 1036 1601 1492 1333 1392 2117 1761 1566 1993 1359 1350 1503 1130 1368 1036 834 956 53 0 0 0 39 124 151 214 438 335 831 883 911 515 770 334 220 786 758 1012 852 1848 1503 1017 1034 725 851 811 600 312 262 179 140 209 10 0 0
1223 1325 1330 1300 1132 1385 1523 1352 898 756 905 1048 492 408 597 692 982 1308 1121 1188 1116 1195 1162 1339 1554 1643 1777 1631 1376 1654 1570 1747 1950 1976 1795 1523 1780 2306 2058 1584 1715 1268 2259 1742 870 766 527 539 709 558 514 207 0 0 0 6 271 149 202 305 785 532 875 792 324 504 685 1451 711 1740 1636 1376 878 965 812 928 792 563 352 178 162 151 24 0 0
1471 1260 1212 1112 911 746 857 811 694 839 1171 814 559 648 738 990 1222 1165 1234 1343 1043 1077 1432 1339 1168 1192 930 1199 1295 2090 1741 2161 1895 2092 2158 1904 1986 2378 2690 2598 2245 2425 2343 2380 1605 1647 2036 1772 1752 1322 797 533 423 362 0 0 43 595 289 342 434 644 881 874 626 552 350 302 1075 1090 1898 1471 1202 936 1128 912 999 870 608 364 300 114 153 18 0
1621 1192 1120 877 752 692 607 445 761 856 1085 868 836 805 900 1269 1084 1273 1452 979 1457 1636 928 804 1252 1116 1397 1548 2247 2206 2223 2470 2148 2106 2038 2288 2164 1996 2349 2569 2575 2622 2500 2476 1796 2193 2610 2273 1902 1654 1280 995 798 803 675 491 6 0 370 407 405 338 620 748 381 297 197 319 1085 1106 2091 1168 1200 1056 1076 1179 1137 1077 880 694 515 333 179 75 15
1660 977 888 742 601 647 757 786 767 806 763 763 924 1023 1298 1112 1042 1168 823 916 1578 1086 1126 1329 1625 1731 1992 2090 2082 2386 2610 2428 2192 2036 2081 2220 1960 1989 2393 1933 2447 2506 2363 2173 1754 2365 2485 2180 1955 1718 1581 1681 1441 985 896 573 406 321 164 578 419 494 389 609 488 601 718 646 1002 1071 993 1716 1314 1429 1186 1137 1329 1288 1166 967 689 511 347 185 276
1391 1154 733 633 920 981 765 860 1100 1403 1289 1341 1199 1168 1200 1171 1367 960 953 1471 1842 1703 1658 1237 1533 1984 1859 2054 2271 2431 2318 2296 1862 2189 2115 1885 1634 1795 1972 2046 2106 2225 2096 1897 1978 2095 1830 1478 1873 1847 2104 2176 1706 1130 744 630 679 683 194 674 673 818 639 760 886 592 661 510 537 1124 1083 1053 1577 1641 1411 1111 1222 1313 1371 1224 1036 729 493 392 294
995 1220 995 1000 1062 973 945 1084 1304 1415 1340 1198 1144 1377 1193 1348 1365 1795 2580 1766 1797 1290 1446 1338 1485 2003 1760 2090 2266 2068 2168 2364 2183 1747 1956 1874 1649 1662 1951 1952 1905 1979 2100 2138 2258 2138 2030 1794 2089 1900 2101 1693 1694 1706 1351 1432 1125 890 816 975 1144 1098 1282 1612 908 618 719 717 604 873 610 1574 1026 1469 1344 1328 1086 1288 1385 1404 1286 1126 744 515 462
756 973 1059 1095 1085 1058 1194 1262 1325 1455 1289 992 714 608 761 810 1135 1522 1806 1880 1684 1334 1324 1677 1775 1829 2189 1606 1603 1737 1780 2292 2040 1835 1554 1555 1579 1620 1953 2197 2282 2253 2541 2803 2089 1955 1859 1868 1707 1779 1834 1614 1524 1705 1643 1489 1464 1433 1861 1875 1076 877 1652 1287 1115 982 688 578 376 806 905 751 1282 1092 917 1446 1328 1103 1284 1399 1407 1384 1220 773 593
704 951 1089 1159 1132 1178 1304 1324 1255 678 616 696 686 706 680 947 844 1528 1940 2088 2032 1428 1393 1594 1260 1378 1810 1732 1536 1492 1494 1682 1535 2400 1464 1481 1584 2440 2117 1950 2141 2506 2211 2241 2655 2202 2113 2023 1652 1671 2081 1601 1202 1466 1430 1705 2030 1818 1651 2248 1657 1747 2195 1511 1445 1554 866 594 806 628 484 1233 835 938 1078 1237 1432 1265 1002 1144 1454 1678 1802 1200 724
470 572 505 867 1157 1170 978 990 792 762 728 788 856 800 1000 988 1124 1848 1901 1784 1660 1734 1682 1618 1664 1394 1529 1663 1551 1470 1560 1160 1160 1869 1756 2036 2117 1770 2459 2423 2264 2351 2775 2722 2472 2013 2147 2112 1995 2009 2066 1668 1693 1518 2010 1315 1490 1798 1934 2177 2213 2040 1658 2183 2092 2111 1958 1188 1127 910 861 829 855 647 1073 1174 1072 1068 1122 988 1041 1260 1434 1344 980
596 605 712 904 1065 976 869 942 852 676 996 954 895 980 1018 1148 1327 1574 1617 1758 1503 1289 1290 1281 1245 767 993 1319 1414 1672 1248 1468 1608 1538 2375 2592 2327 2269 2261 2386 2541 2174 2962 2704 2122 2051 1923 1818 1820 1858 2032 1893 1560 1544 1684 1426 1438 1326 1636 1520 1636 1763 2044 2293 1905 2060 2061 1650 1488 1463 945 878 834 1323 674 708 514 716 1402 1232 988 895 965 1233 1400
514 577 846 1071 792 690 727 927 852 905 1008 1211 1124 1048 1208 1367 1060 1396 1390 1500 1380 1318 1091 1065 963 1055 1080 1033 1426 951 1226 1176 1176 2322 2491 1988 2021 2238 2290 2545 2565 2737 2572 1991 2076 1785 1938 2136 2112 1963 1999 2018 1759 1640 1507 1403 1496 1370 1395 1669 1682 1973 2126 2124 1966 1963 2134 1811 1498 1082 953 698 624 614 1164 901 1008 676 887 1308 1245 1009 937 795 876
748 650 943 862 689 677 767 877 1039 1104 938 1079 1127 1041 1252 1400 1231 1541 1242 1169 1076 1006 1137 976 1008 1084 942 1173 1248 1080 1262 1752 2183 2089 2711 2431 2161 1472 2464 1953 1891 2087 2203 1801 1916 1659 1798 1779 1805 1949 2175 1944 1711 1674 1689 1639 1656 1476 1448 1518 1565 1629 1767 1883 1957 1867 1996 1868 1964 1813 1447 1525 1438 1518 917 751 845 799 1084 1545 1320 1173 794 748 776
806 854 799 767 685 650 918 941 1006 1078 1075 1065 1060 1001 1014 1120 1180 1154 1102 1059 1286 870 915 1155 986 1038 1059 1152 1273 1997 1332 1988 1803 2188 2537 2373 2297 2214 1905 2063 1776 1869 1782 1761 1789 1634 1718 1745 1749 1889 1783 1738 1586 1570 1224 1494 1372 1472 1502 1544 1564 1703 1852 1793 1840 1704 1908 2104 1990 1809 1516 1474 1557 1384 1057 1186 1040 796 828 853 1166 1150 1176 819 701
698 794 760 742 624 768 930 851 930 1089 1121 976 924 938 1025 1142 978 956 981 1130 1281 1330 1231 1300 1067 1073 1032 1254 1425 2292 2235 2188 2059 2249 1895 2264 2189 1910 1950 2057 1778 1775 1945 1887 1670 1609 1628 1614 1630 1564 1665 1575 1446 1614 1675 1525 1418 1277 1472 1553 1803 1936 1810 1842 1782 1846 2002 1686 1973 1902 1732 1664 1360 1162 1123 1072 806 944 877 832 664 880 936 986 789
604 712 682 689 572 697 920 912 1029 1013 1046 1152 1105 983 1072 947 870 1016 1126 1051 1214 1204 879 942 1319 1578 1850 2126 1560 1490 1711 1778 1637 1939 2011 1879 1864 1995 1756 1755 1661 1645 1677 1267 1569 1513 1435 1392 1487 1274 1492 1505 1408 1494 1512 1445 1276 1259 1160 1190 1052 1422 1766 1791 2041 2231 1912 1865 1912 1899 1810 1839 1744 1497 1502 1494 1275 1014 1103 882 829 796 878 1005 948
604 714 656 678 670 675 743 878 998 962 1018 1012 1013 838 898 962 1122 987 1229 1021 942 1064 940 1074 1355 1597 1359 1776 1537 1490 1326 1230 1226 1261 1249 1357 1429 1476 1473 1571 1378 1410 1457 1598 1516 1500 1362 1316 1337 1044 1033 1406 1383 1488 1662 1732 1335 1201 1155 1211 994 868 1664 1932 1893 1801 1890 1960 1882 1897 1980 2004 1958 1976 1789 1344 1193 1228 1102 1245 875 695 722 751 1073
719 729 627 726 789 722 751 801 944 977 929 989 1001 836 777 934 1088 1285 871 924 1113 1090 1175 1524 1387 1530 1536 1314 911 1133 922 744 675 625 922 986 1001 1019 1120 1075 1009 927 911 925 983 879 1031 1036 983 989 1021 1048 908 1057 1218 1742 1591 1257 970 920 870 934 890 1976 1095 992 1471 1670 1940 2259 2133 1932 1986 2050 1751 1314 1151 1251 1175 1216 1008 840 766 799 912
630 659 684 660 667 654 727 817 842 801 924 910 1036 1002 936 960 931 824 841 870 754 841 800 992 1012 1012 945 820 866 749 675 603 510 477 504 542 600 635 703 746 861 626 658 737 487 540 509 516 535 742 834 911 793 962 1062 1172 1326 1576 1464 1008 958 735 850 829 924 886 1436 1373 1908 2179 2097 2042 1938 1740 1680 1480 1413 1192 1013 961 1130 919 793 818 900
686 748 832 671 715 748 798 806 745 754 791 882 874 1039 1059 1100 870 785 862 694 936 785 955 941 1226 972 811 599 493 412 559 574 417 309 353 295 361 425 313 356 329 276 305 329 413 308 282 115 261 358 377 493 562 624 639 637 816 1202 1636 977 979 682 841 917 882 624 738 837 1237 1286 1355 2146 2051 1758 1294 1139 1288 1515 1352 1049 848 851 869 924 813
785 742 683 568 621 644 591 629 659 909 741 754 939 884 889 769 889 852 745 769 959 978 1210 1285 1146 858 856 544 395 304 332 462 484 310 68 258 273 182 198 104 16 2 46 22 107 102 3 42 88 132 140 187 306 277 237 287 487 706 748 918 874 1104 1100 997 808 900 883 718 772 857 908 1028 1858 1691 1695 1682 1740 1725 1518 1179 883 1104 896 875 874
546 645 692 603 507 528 544 714 632 776 625 697 556 685 793 684 605 586 644 628 797 1145 908 849 884 655 556 487 391 267 89 11 2 0 0 0 6 3 0 0 0 0 0 0 0 0 0 0 6 61 34 26 72 123 112 206 334 365 401 493 435 452 493 639 762 651 687 482 586 570 678 730 935 1599 1577 1441 1580 1639 1612 1678 1451 1182 866 629 789
448 394 400 398 472 514 457 708 719 538 796 466 466 560 637 626 662 632 598 815 889 683 451 494 568 564 421 325 213 89 25 0 0 0 0 0 0 0 0 0 0 0 0 0 0 0 0 0 0 0 0 0 1 40 48 78 134 119 51 67 148 80 68 166 342 387 505 472 446 411 413 463 495 589 882 1046 1403 1603 1747 1675 1739 1576 1274 911 941
353 366 403 374 355 278 398 336 371 478 482 570 452 479 641 876 910 656 725 670 605 672 585 531 481 408 302 214 108 50 8 1 1 2 2 4 0 0 0 0 0 0 0 0 0 0 0 0 2 2 0 0 1 1 2 34 8 1 0 5 0 0 0 0 7 24 67 142 239 196 219 249 320 378 399 597 674 1620 1992 1753 1545 1338 1474 1360 1152
443 402 398 370 198 287 111 64 157 358 380 447 487 483 484 709 776 808 734 601 588 628 423 365 316 238 113 66 28 11 1 0 0 0 1 0 0 0 0 0 0 1 0 0 0 0 0 2 8 0 0 5 2 0 2 4 0 0 0 0 0 4 12 13 12 15 20 18 9 5 4 33 40 41 162 141 237 281 311 1257 1616 1607 1423 1384 1206
Wind_Speed
38 40 37 40 38 37 36 36 37 37 37 35 33 31 30 29 28 26 25 23 22 21 20 20 20 21 21 21 21 22 22 22 21 20 20 19 18 18 19 19 18 18 20 20 18 16 15 13 12 11 11 10 9 8 7 6 7 7 8 9 10 10 11 11 11 11 11 11 11 10 10 9 9 8 9 9 11 12 12 13 13 10 8 11 15
41 38 35 36 37 36 36 37 38 38 37 35 33 31 29 28 27 25 24 23 22 21 20 20 21 21 21 22 23 23 23 23 22 20 20 20 18 18 19 19 20 20 20 20 19 17 14 13 13 12 11 10 9 8 7 6 6 7 8 8 8 8 9 9 10 11 12 12 12 12 11 11 10 10 10 12 12 13 13 13 14 9 8 14 15
40 36 34 35 37 36 35 36 38 37 36 35 33 30 30 27 26 25 24 23 22 21 21 21 22 22 23 23 23 25 25 25 24 21 21 21 19 18 18 18 19 20 20 19 19 17 14 13 13 12 11 11 10 8 7 7 7 7 7 8 7 8 8 9 9 10 12 13 15 15 15 14 12 11 12 13 13 13 13 13 13 13 10 15 15
40 33 31 35 35 35 35 36 37 37 35 34 33 30 28 26 25 25 24 23 22 21 22 22 22 22 22 23 24 25 25 26 25 24 21 20 19 18 17 15 17 19 19 19 19 18 15 14 14 13 12 11 10 9 8 8 8 8 8 8 10 10 10 9 8 9 10 14 18 14 8 8 9 12 13 13 13 13 13 13 14 15 16 15 16
39 32 30 30 30 33 35 36 36 36 35 34 32 29 28 26 24 25 25 23 22 22 22 22 22 22 23 24 25 26 27 27 26 24 23 21 19 17 17 18 17 18 18 18 18 18 16 15 13 12 11 11 11 10 9 8 8 8 8 10 11 10 8 7 7 6 8 11 14 5 nan 11 9 12 12 12 12 12 13 13 14 16 17 18 17
35 31 29 28 29 32 35 36 37 37 35 34 32 29 27 25 24 24 24 23 22 22 23 22 22 22 24 25 27 28 28 27 27 25 23 21 20 18 17 16 17 17 17 18 18 18 17 16 14 12 10 10 10 10 10 9 8 8 9 10 9 7 8 7 5 6 5 11 11 5 9 10 9 9 13 12 12 13 14 13 13 13 15 17 17
34 28 28 28 27 30 34 36 37 36 34 34 31 29 27 25 24 24 24 24 23 23 22 22 22 23 24 26 27 28 28 28 27 25 24 23 21 19 16 16 14 16 16 17 18 18 17 16 15 13 11 10 9 10 10 10 9 8 9 8 7 9 7 7 5 4 5 5 6 8 9 11 9 8 11 13 13 14 15 14 14 14 15 17 18
30 26 27 27 26 31 34 36 36 35 34 33 32 29 27 25 24 23 23 23 22 21 22 22 23 24 24 27 29 29 28 28 27 26 25 23 21 20 20 18 16 16 17 17 18 19 18 16 16 14 12 11 10 10 10 10 10 8 7 nan 8 6 6 5 3 4 5 3 6 9 11 13 10 9 12 12 12 11 16 17 16 15 16 16 17
29 28 28 27 28 34 33 35 34 34 33 33 31 29 27 25 24 23 23 23 22 22 23 23 23 24 26 27 29 29 28 27 27 26 25 23 22 20 19 18 18 16 16 17 18 18 17 16 14 12 11 11 10 10 11 10 10 9 8 7 7 5 4 4 5 6 4 7 9 10 15 14 13 11 13 15 16 16 16 16 15 17 16 17 17
29 28 28 26 28 33 32 33 34 33 33 33 31 30 27 25 23 23 22 22 23 23 23 24 24 25 27 28 29 29 28 27 26 25 25 23 21 20 19 18 18 18 19 20 19 18 16 15 13 12 10 10 11 10 11 10 9 8 8 6 4 6 5 5 5 6 6 7 16 16 15 19 15 14 16 16 17 16 17 18 16 16 16 18 18
30 29 28 28 31 29 30 32 33 33 33 34 32 30 27 24 24 22 21 22 22 22 23 24 25 26 27 28 29 29 28 26 25 24 23 22 20 20 18 17 17 18 19 20 19 17 15 13 13 11 10 9 10 10 11 11 10 9 8 7 6 7 6 6 5 6 9 14 16 16 19 23 16 15 18 17 17 17 17 17 17 16 16 16 16
30 30 30 28 32 27 30 32 33 32 33 33 33 31 28 25 23 22 22 21 23 23 24 24 25 26 27 27 28 28 27 25 24 23 22 21 20 19 18 16 16 16 16 16 16 15 14 13 12 12 10 10 10 11 12 13 11 10 8 8 7 6 6 6 4 6 9 15 16 16 18 19 19 18 20 19 17 17 17 17 16 16 15 14 nan
30 31 31 30 29 28 29 31 33 33 33 33 32 31 28 25 24 23 22 22 24 24 25 26 26 26 26 27 27 26 25 23 23 22 21 20 19 17 16 16 15 15 16 15 15 14 14 13 12 11 11 10 10 12 15 15 13 12 10 9 8 6 6 7 7 7 nan 16 19 20 20 18 18 20 19 19 19 17 17 17 16 17 nan nan nan
30 31 30 30 28 32 29 30 30 32 32 32 31 29 26 24 23 22 24 24 24 25 25 26 26 26 25 25 25 24 23 22 22 22 21 20 18 17 16 15 14 14 15 14 14 14 14 13 12 11 11 10 10 12 16 16 15 13 12 10 9 9 7 7 8 11 11 13 16 21 20 17 17 20 19 18 19 18 19 18 nan nan nan nan nan
32 33 31 30 29 28 32 29 29 30 30 29 29 27 27 24 22 23 24 25 25 26 27 27 26 25 25 25 25 24 23 23 23 22 22 20 18 17 15 13 13 13 13 13 14 14 13 12 11 10 11 12 11 12 14 16 15 14 12 11 10 10 9 9 9 10 nan 16 16 21 20 18 20 20 19 18 17 18 nan nan nan nan nan nan nan
35 35 33 30 29 28 27 31 31 29 27 28 28 28 26 25 24 24 24 25 26 27 28 27 26 25 24 24 25 24 24 24 24 24 22 21 19 17 14 12 11 12 13 12 12 12 13 12 11 10 11 12 13 12 13 14 14 13 12 11 11 10 10 9 12 10 16 16 21 21 19 19 23 21 19 19 17 17 nan nan nan nan nan nan nan
35 34 34 32 29 27 27 27 29 30 27 27 26 26 26 25 25 25 25 26 27 29 28 27 26 24 24 25 25 25 25 26 25 24 23 21 19 17 15 13 11 11 12 12 12 12 13 12 11 11 11 11 14 14 14 14 14 12 12 12 11 11 10 9 11 11 13 13 21 21 21 21 23 23 21 19 18 16 nan nan nan nan nan nan nan
32 33 33 31 28 27 27 27 28 25 24 25 25 25 25 26 25 24 25 26 27 27 27 26 24 24 24 25 25 25 26 27 26 25 23 21 19 18 16 14 12 12 13 12 12 12 13 13 11 11 11 12 13 15 14 14 14 14 14 13 12 11 9 8 13 13 nan 15 20 19 19 23 25 24 21 20 nan nan nan 16 18 18 17 nan nan
32 33 31 30 29 28 28 26 24 24 23 20 21 24 26 25 25 24 24 25 26 26 26 24 23 23 23 23 24 25 26 26 26 25 23 21 20 18 17 14 12 12 13 13 12 13 13 12 11 10 12 13 13 15 15 14 15 15 15 15 13 11 10 10 14 14 18 15 20 19 19 24 25 24 23 21 20 18 18 17 18 nan nan nan nan
31 32 29 29 29 28 25 23 22 22 20 21 23 23 24 25 24 24 24 25 26 26 24 23 22 22 22 23 23 22 23 22 25 22 22 21 18 18 17 15 12 12 13 13 13 13 13 12 11 10 11 13 14 15 16 17 16 16 16 15 14 12 12 15 15 17 20 21 22 19 24 25 25 24 23 22 20 18 19 18 nan nan nan nan nan
27 28 27 27 29 26 24 21 22 22 23 24 23 23 22 24 23 23 24 25 24 24 23 22 20 20 20 20 20 18 17 18 19 18 20 17 20 19 18 16 14 12 12 12 13 12 13 12 11 11 10 12 13 15 16 17 18 18 17 17 15 13 15 16 17 nan nan 23 22 22 28 26 24 23 22 21 19 20 21 nan nan nan nan nan nan
26 26 26 26 26 23 22 22 20 23 24 23 22 22 21 20 19 19 19 20 21 22 19 16 18 16 19 17 14 14 16 16 16 19 15 18 17 18 18 17 16 15 14 14 14 14 13 12 11 11 11 10 12 13 15 17 19 18 18 16 15 16 17 16 16 14 16 20 22 24 29 26 24 23 23 21 20 22 nan nan nan nan nan nan nan
26 25 25 24 21 20 20 22 21 23 23 23 22 22 19 17 19 18 17 19 19 19 15 15 15 15 16 15 13 13 13 14 16 17 16 17 18 18 18 18 18 18 16 15 16 15 15 13 12 11 11 10 11 13 15 17 18 21 19 16 17 18 18 18 15 15 17 21 23 29 29 27 24 23 22 21 20 22 nan nan nan nan nan nan nan
26 25 24 22 20 18 20 21 22 22 22 22 22 20 17 18 18 17 17 16 17 15 13 13 13 15 15 13 12 13 14 12 15 18 18 16 16 18 19 18 18 17 17 15 14 14 16 15 14 13 12 12 13 14 15 18 19 18 18 18 18 18 19 18 18 19 18 23 24 31 30 28 25 22 21 21 20 22 nan nan nan nan nan nan nan
24 25 22 21 19 20 21 21 21 20 22 23 22 19 17 18 19 18 17 16 16 13 13 13 10 14 13 13 14 12 13 13 12 12 12 14 14 14 14 14 14 15 18 15 16 16 15 14 nan 13 13 nan nan 16 14 16 19 20 20 19 18 17 17 19 21 17 17 21 24 31 31 29 26 23 20 21 21 21 21 nan 19 nan nan nan nan
26 24 23 21 21 21 20 21 20 21 22 22 20 20 20 17 21 19 18 17 16 13 14 13 10 12 12 13 14 11 10 14 13 11 8 13 12 13 13 14 15 14 18 13 18 18 18 17 nan nan nan nan nan 15 18 19 17 19 20 21 20 18 18 15 17 21 19 21 25 31 30 29 28 26 24 22 21 22 21 nan nan nan nan nan nan
23 23 22 22 22 21 20 20 20 20 22 20 21 23 19 20 23 21 19 18 17 15 15 14 13 12 13 14 11 11 9 10 7 7 7 9 10 9 8 10 13 14 17 16 17 20 18 17 nan nan nan nan nan 12 12 14 17 16 19 21 21 18 20 19 14 20 22 23 24 32 30 30 28 28 26 24 23 23 22 19 17 23 nan nan nan
25 24 22 22 21 22 21 19 22 21 21 23 24 21 21 23 23 23 19 21 19 15 16 14 15 14 15 12 9 10 10 10 8 7 7 9 8 8 8 8 9 9 10 9 10 12 13 12 11 11 11 12 nan nan nan nan 19 20 16 13 17 21 18 18 19 16 18 24 24 28 32 31 31 30 29 26 25 23 23 20 19 21 nan nan nan
26 23 22 22 22 22 21 24 24 22 24 25 22 22 25 26 27 24 20 19 20 17 19 20 18 17 15 13 9 11 11 11 9 7 9 8 7 7 9 7 8 9 8 9 10 11 11 11 11 11 14 14 13 13 nan nan nan 20 22 18 15 15 18 18 18 18 17 20 25 25 30 30 31 31 32 30 26 24 25 23 21 20 22 nan nan
26 23 22 23 25 23 24 25 24 25 26 24 21 26 27 27 26 23 22 21 23 24 23 19 17 17 15 13 13 12 10 11 10 9 9 8 8 7 7 7 7 7 8 9 9 11 12 13 13 13 11 14 16 15 15 14 nan nan 23 23 20 18 17 17 19 21 21 19 23 25 30 29 28 29 30 31 30 26 24 24 23 21 19 nan nan
24 23 23 25 26 23 25 26 26 27 25 23 25 28 27 27 23 24 25 21 25 24 20 17 18 18 17 16 14 12 9 9 9 10 9 8 6 6 5 6 7 7 9 11 11 12 13 13 13 13 13 14 15 16 15 17 17 15 18 24 25 24 22 20 21 20 19 20 21 25 27 29 28 28 28 28 29 28 26 25 25 24 19 19 14
22 23 23 27 26 26 28 28 29 29 25 29 32 29 27 25 24 25 24 24 26 25 23 20 20 19 18 14 13 11 10 9 8 9 10 9 7 6 6 8 10 11 11 16 14 14 14 13 14 15 16 16 15 16 17 18 19 19 17 19 20 22 23 21 19 19 19 21 21 25 26 26 29 30 28 28 28 28 27 26 25 24 24 19 15
22 24 29 29 28 29 30 31 32 31 31 33 31 32 31 26 23 26 26 29 29 26 21 20 19 18 16 14 13 12 8 7 9 7 8 8 9 9 9 11 13 13 12 13 15 15 15 13 14 14 14 14 15 16 15 15 17 19 20 20 20 19 21 21 21 18 15 16 17 23 22 21 23 27 28 28 29 29 27 26 25 22 20 21 20
23 26 29 32 30 30 32 33 33 34 36 38 35 30 25 23 27 28 26 28 31 26 19 18 18 16 15 15 13 12 8 6 8 10 8 7 9 11 13 11 10 12 13 13 13 11 10 12 14 13 13 14 15 16 16 16 17 18 19 20 21 23 23 24 24 25 21 20 18 18 23 21 20 21 21 27 31 30 28 25 24 21 19 20 21
24 28 33 35 32 33 32 33 39 38 31 30 30 27 30 33 29 25 24 27 29 25 18 18 17 15 15 16 13 10 11 8 6 8 8 6 9 11 14 13 11 12 13 12 14 14 13 13 13 13 15 15 14 14 15 16 17 17 18 21 21 21 24 26 27 27 24 21 19 18 22 28 26 20 20 21 29 30 29 27 24 22 18 17 21
26 33 38 39 37 33 34 36 35 31 30 32 31 33 36 33 25 22 23 25 23 20 18 20 21 18 18 16 12 10 9 11 11 5 13 17 16 16 13 15 16 14 13 13 12 13 14 14 14 14 14 14 15 16 17 16 17 17 17 19 20 21 21 23 25 27 28 25 21 21 21 21 24 25 23 20 19 23 29 29 27 24 21 19 19
37 38 36 31 30 34 38 36 32 26 31 33 35 37 34 29 24 20 20 21 20 20 22 22 22 20 16 13 11 11 15 10 10 14 14 11 12 15 18 15 15 15 15 12 12 12 13 13 13 13 13 13 13 13 17 19 18 19 19 20 20 21 23 25 25 26 27 27 26 24 23 24 23 21 18 20 25 19 23 30 29 28 25 22 19
34 33 31 32 31 32 34 33 29 30 33 34 35 35 28 26 25 20 20 21 23 23 21 19 19 17 16 11 12 13 6 14 14 18 13 14 15 17 15 18 17 16 17 17 13 12 11 12 12 12 12 14 14 15 15 16 17 17 18 19 20 22 23 23 24 26 27 27 27 24 21 22 23 25 24 22 21 24 23 26 30 29 28 26 23
37 35 34 33 32 33 35 33 32 34 35 36 37 34 24 22 24 25 23 20 21 19 18 18 16 16 15 13 10 9 13 14 14 14 16 14 15 15 19 16 18 19 19 19 17 17 16 15 13 11 14 14 14 15 15 16 17 17 17 17 17 18 19 21 23 24 25 25 26 25 23 23 25 27 28 28 23 20 23 24 25 25 26 27 27
40 35 35 38 34 34 34 33 33 34 34 35 35 33 25 20 19 18 21 18 16 18 17 15 16 14 11 10 8 10 12 16 13 16 15 17 19 19 21 19 19 21 20 20 18 18 17 16 15 14 14 15 15 15 15 16 17 18 18 19 21 20 20 21 22 22 24 25 24 25 25 25 25 25 25 29 31 22 19 21 20 23 24 25 28
41 35 35 35 32 33 33 33 34 36 37 36 32 29 26 20 16 15 17 18 18 19 17 18 20 12 12 13 15 11 13 13 15 16 17 19 19 20 21 21 22 22 21 22 22 21 20 19 17 16 16 17 17 18 17 18 17 18 20 20 21 24 24 25 25 25 24 23 24 24 24 25 25 25 25 27 31 32 28 22 22 21 24 25 26
42 38 35 32 31 33 35 34 33 36 37 32 27 26 25 24 20 16 16 17 17 14 15 11 12 14 12 15 13 15 11 15 16 18 19 18 20 21 22 23 21 22 22 22 21 23 23 22 21 20 20 19 19 19 19 23 22 20 18 18 20 22 25 25 25 26 25 24 23 23 23 23 24 26 26 24 24 27 31 29 25 22 19 22 23
43 38 36 36 33 33 34 31 30 32 33 30 28 28 27 23 17 16 17 16 13 9 9 13 14 16 15 11 14 15 15 15 17 19 19 20 21 21 22 23 23 23 23 24 23 24 24 23 24 24 21 22 21 22 24 27 23 22 20 22 23 21 25 26 25 25 24 25 25 24 24 24 24 26 28 28 27 25 27 32 32 27 25 22 21
36 34 36 37 35 33 32 28 26 26 28 31 32 27 23 19 17 18 17 14 14 9 12 12 15 15 16 16 17 17 17 18 19 21 21 21 22 22 21 23 24 24 24 25 26 25 25 25 25 25 25 24 24 23 23 28 29 27 25 27 24 26 24 29 23 23 25 27 27 26 26 24 24 26 27 27 26 25 25 29 31 31 27 25 24
33 33 33 34 35 34 29 26 25 25 26 27 24 21 19 16 16 14 13 14 15 13 8 6 10 16 17 16 17 19 19 19 20 21 21 21 22 23 22 23 25 25 25 27 27 25 26 27 27 27 27 27 25 25 26 27 28 33 30 28 28 29 30 26 23 23 29 28 27 27 26 25 25 25 26 24 25 24 23 25 29 32 31 28 25
34 32 31 32 33 31 27 24 24 24 20 21 19 17 14 13 13 14 12 12 9 3 7 12 15 16 18 18 19 19 22 21 20 22 22 20 22 23 22 22 25 24 25 28 27 27 27 28 28 28 28 29 27 28 28 28 27 29 34 38 36 31 28 28 28 26 25 29 26 26 26 27 26 26 26 24 24 24 25 23 24 28 31 30 28
35 35 34 33 29 25 25 25 26 24 20 18 16 14 13 8 10 10 6 8 5 11 13 15 18 19 20 22 21 20 21 22 21 21 nan 21 21 23 23 24 nan nan nan nan 28 29 nan nan nan 30 30 30 31 31 30 28 28 31 32 31 32 33 33 31 32 28 25 27 31 28 25 25 28 27 27 27 26 25 25 25 24 26 29 30 29
35 37 38 36 31 26 26 25 23 22 19 16 15 14 12 9 8 4 5 9 12 15 17 19 20 21 23 23 21 21 nan nan nan nan nan nan nan nan nan nan nan nan nan nan nan nan nan nan nan nan nan nan nan 32 30 30 29 30 31 31 31 32 33 32 33 33 30 27 23 28 30 27 26 27 27 28 27 27 27 27 26 26 27 27 27
32 33 29 27 24 23 24 24 22 22 19 17 14 13 11 9 11 9 11 15 17 16 17 19 21 22 24 22 22 nan nan nan nan nan nan nan nan nan nan nan nan nan nan nan nan nan nan nan nan nan nan nan nan nan nan nan 31 31 nan nan 32 nan nan 35 33 34 34 31 28 28 26 27 27 28 27 25 27 29 28 28 28 29 30 28 27
31 32 26 22 22 23 25 27 27 24 22 19 18 15 11 14 15 18 18 16 17 18 19 20 20 20 22 22 22 nan nan nan nan nan nan nan nan nan nan nan nan nan nan nan nan nan nan nan nan nan nan nan nan nan nan nan nan nan nan nan nan nan nan nan nan nan nan 35 32 29 29 27 25 27 29 28 27 28 29 30 31 30 30 30 29
30 30 28 27 25 26 29 nan 28 25 23 20 20 21 17 18 18 18 19 19 19 18 19 19 18 19 20 nan nan nan nan nan nan nan nan nan nan nan nan nan nan nan nan nan nan nan nan nan nan nan nan nan nan nan nan nan nan nan nan nan nan nan nan nan nan nan nan nan nan nan nan nan nan nan 28 29 27 26 25 31 33 33 31 30 30
Wind_Direction
314 313 314 315 314 313 314 313 313 313 315 318 312 306 302 298 293 292 293 296 301 304 308 311 315 321 319 322 324 325 327 327 327 325 323 322 323 323 323 322 321 322 319 317 314 309 303 306 306 300 296 291 288 284 275 276 278 286 294 297 297 302 312 310 305 304 301 298 292 286 285 289 278 273 264 256 249 247 251 275 281 287 300 287 277
313 310 314 314 312 313 313 313 312 313 314 316 313 306 302 297 294 294 294 297 301 304 308 312 315 317 319 323 324 325 324 323 324 325 325 322 323 322 323 326 328 326 323 318 313 309 309 309 308 306 301 296 293 290 290 288 292 300 298 302 308 321 325 321 319 319 310 304 300 294 287 279 273 268 269 261 258 254 257 265 272 297 315 283 277
309 309 312 313 311 311 311 312 312 312 314 316 313 305 303 297 295 295 294 296 299 305 308 313 315 317 321 323 325 326 324 324 326 326 324 322 324 321 324 327 329 326 321 319 315 313 312 312 309 307 303 301 301 302 301 303 305 305 315 320 332 341 336 335 326 322 323 316 310 299 283 273 271 273 271 269 270 273 272 273 280 285 298 280 282
307 309 309 310 309 310 310 312 311 311 312 314 312 307 303 299 294 293 294 295 299 307 311 312 315 317 319 322 324 322 321 324 325 325 325 323 321 320 323 326 329 326 322 322 319 317 314 312 307 303 299 295 295 296 302 306 311 315 326 342 360 359 352 350 345 336 334 331 326 317 315 308 291 279 279 282 282 284 288 287 282 283 286 283 278
305 308 309 309 309 310 310 310 310 311 312 314 311 304 302 297 293 291 291 296 301 307 310 313 316 318 319 321 323 321 323 323 324 325 326 323 314 316 324 328 331 330 326 326 324 322 319 314 307 302 299 296 296 299 304 310 314 325 336 359 10 1 360 354 345 352 335 359 9 304 nan 310 311 282 283 283 284 283 282 285 288 291 288 284 279
307 309 310 309 309 310 309 310 309 310 312 314 309 303 300 295 292 290 292 297 304 307 311 315 315 319 320 321 322 322 322 322 324 324 324 322 316 318 321 321 328 331 332 331 331 329 325 321 316 309 302 298 300 302 306 313 316 329 348 360 7 3 6 12 7 15 25 15 36 26 318 306 302 294 281 281 284 288 289 285 282 287 288 283 284
306 309 308 306 308 310 309 309 309 311 312 312 308 302 299 294 291 291 295 300 305 310 313 315 316 319 322 321 320 320 320 322 323 324 324 322 321 315 317 321 325 326 332 336 336 332 329 327 325 319 308 301 299 304 310 312 319 327 356 5 7 15 16 16 43 28 37 14 9 22 303 296 295 298 289 293 295 295 289 284 282 282 280 287 284
308 309 304 304 306 309 308 307 309 310 311 311 307 303 300 296 292 294 296 301 306 311 313 314 318 320 320 321 321 321 321 321 322 324 324 323 322 318 321 323 323 324 334 336 338 334 332 330 332 329 323 314 305 307 313 316 321 341 357 nan 24 22 29 47 64 70 89 35 37 330 295 290 293 288 271 270 278 286 286 285 281 277 276 275 280
309 305 299 300 305 307 306 306 309 309 310 311 307 303 299 295 294 294 299 304 309 313 316 316 319 321 321 321 321 321 321 321 320 322 324 324 324 321 319 319 319 317 320 329 334 336 334 332 329 328 329 318 319 316 310 320 322 342 10 22 30 41 61 70 80 105 52 3 272 279 293 294 291 288 277 273 274 274 285 281 281 276 275 277 279
307 295 294 298 302 305 305 305 306 308 309 310 307 302 299 296 296 299 304 309 313 317 318 321 320 318 319 322 323 321 320 320 319 322 323 322 322 319 316 317 320 320 321 326 330 332 332 328 327 328 324 329 325 327 325 318 332 340 9 25 39 43 55 64 82 70 22 327 282 270 275 279 284 283 282 279 274 275 275 278 286 285 288 283 280
296 294 292 294 299 302 303 303 305 307 309 309 307 303 299 298 298 302 306 311 315 318 318 316 316 319 322 324 324 322 321 318 317 319 321 320 319 319 315 315 318 323 326 327 330 329 329 328 324 325 328 330 335 335 335 342 338 351 357 27 41 47 62 66 81 18 353 303 307 300 288 284 286 291 288 283 283 281 280 283 286 290 289 286 283
293 288 288 290 298 299 301 301 303 305 307 307 306 303 300 298 299 303 307 312 314 312 313 315 318 320 323 323 323 323 321 318 316 318 319 318 317 318 315 314 316 318 320 318 323 332 335 336 333 329 330 334 335 341 345 348 356 354 5 27 38 50 76 90 51 14 3 311 303 306 301 297 297 295 290 289 289 288 288 289 292 295 294 291 nan
285 284 287 292 295 296 297 300 302 304 305 306 304 302 298 297 298 300 305 308 312 313 314 316 319 321 322 323 324 323 320 317 317 318 316 315 314 314 316 316 314 315 320 323 330 337 343 345 344 342 334 332 331 337 341 349 359 5 15 25 39 52 65 83 41 42 nan 332 325 312 308 308 309 303 300 293 291 291 291 294 295 300 nan nan nan
284 284 286 288 292 297 296 298 300 302 303 303 302 298 296 295 298 298 302 308 310 312 314 317 319 322 321 322 322 320 319 318 316 316 316 315 313 313 313 314 314 318 322 331 335 337 345 349 350 350 348 338 332 332 339 344 354 6 14 22 34 40 48 42 34 29 333 316 318 309 313 318 320 307 301 298 293 296 297 298 nan nan nan nan nan
287 284 284 286 290 293 298 295 297 298 298 298 297 295 293 294 293 297 302 305 306 309 315 317 319 321 319 319 320 319 318 317 315 316 314 312 312 311 312 314 317 322 326 331 337 339 341 348 347 349 353 349 343 341 340 344 351 360 11 18 26 34 41 12 13 19 nan 343 320 313 317 324 320 317 310 304 303 297 nan nan nan nan nan nan nan
286 286 286 287 290 293 295 298 298 295 294 295 296 295 292 291 293 296 299 302 305 310 314 316 319 319 317 317 317 316 314 314 314 314 314 313 312 312 310 309 315 324 329 329 334 339 342 344 345 345 347 354 352 350 350 353 355 3 7 14 24 32 35 17 13 24 349 335 321 319 321 325 320 321 324 318 309 299 nan nan nan nan nan nan nan
287 290 290 289 294 295 295 297 298 294 292 293 291 288 285 284 291 296 301 305 307 310 313 316 317 316 316 317 315 315 312 312 312 312 312 310 310 310 304 301 305 320 330 330 330 341 340 342 343 344 347 349 354 354 357 359 5 9 10 16 25 29 28 22 10 21 348 338 318 325 328 331 326 325 330 330 315 309 nan nan nan nan nan nan nan
289 291 289 292 294 294 296 296 298 295 292 288 283 282 282 284 291 298 304 306 307 309 312 315 316 316 317 318 317 315 313 312 311 311 309 308 309 308 304 297 303 313 327 330 330 334 341 342 343 347 345 349 354 356 357 1 8 14 17 26 27 30 27 27 358 17 nan 344 319 320 328 330 328 330 332 330 nan nan nan 298 296 301 304 nan nan
287 286 289 291 292 295 295 298 298 295 291 284 282 283 286 287 293 301 303 305 306 308 311 314 317 317 318 318 318 315 314 312 310 310 310 308 308 307 307 305 300 312 320 327 330 332 338 344 347 347 351 350 354 355 357 0 9 16 23 26 32 27 39 14 3 2 343 319 323 326 330 330 328 330 335 333 329 325 303 303 302 nan nan nan nan
282 288 290 289 292 295 297 299 296 291 285 281 280 281 286 291 295 300 302 304 306 308 312 316 317 317 317 317 317 315 313 312 311 310 310 313 312 306 311 312 313 310 319 325 329 334 339 348 349 351 355 352 357 357 357 0 9 18 23 27 28 31 10 7 13 6 330 327 321 329 329 331 330 332 335 335 334 325 318 311 nan nan nan nan nan
279 286 288 290 294 297 301 295 294 292 286 282 278 279 284 293 293 298 302 304 305 309 313 316 314 315 316 319 320 319 316 314 315 310 315 307 301 308 312 317 320 322 322 330 331 337 344 347 355 356 357 356 354 359 359 2 11 19 23 24 27 10 8 15 14 nan nan 325 323 327 330 329 332 334 335 334 334 330 322 nan nan nan nan nan nan
283 282 287 290 293 298 301 298 291 288 284 276 274 272 278 288 287 291 295 300 304 308 309 309 312 311 319 320 323 317 316 321 314 314 307 306 309 311 313 320 325 329 335 333 338 340 347 354 359 6 4 1 357 353 356 2 12 18 21 23 10 8 10 15 1 10 337 326 323 330 329 329 332 339 336 335 336 330 nan nan nan nan nan nan nan
281 282 283 285 287 294 297 295 288 282 281 275 271 274 282 279 286 288 288 300 302 303 306 307 307 312 318 323 316 316 317 313 310 316 310 312 309 317 321 327 331 335 335 341 341 344 349 355 5 10 12 10 359 5 360 350 356 13 15 9 3 8 8 11 355 8 344 333 330 335 331 329 335 336 339 335 336 331 nan nan nan nan nan nan nan
282 280 281 282 290 293 291 286 283 280 274 270 269 272 273 274 276 280 282 288 294 297 299 298 303 311 313 302 322 322 313 302 304 305 306 307 317 327 334 334 334 336 336 334 345 349 350 359 8 15 7 2 3 11 10 351 354 351 355 1 3 7 8 349 356 4 347 334 333 340 335 334 338 339 340 338 336 332 nan nan nan nan nan nan nan
274 274 275 279 287 285 284 282 282 276 269 267 272 271 269 269 272 273 277 279 284 287 286 289 291 301 303 316 321 315 309 303 302 307 319 317 322 327 324 327 328 330 339 337 332 339 343 349 nan 2 4 nan nan 13 17 350 350 350 353 356 3 8 355 351 357 355 342 334 336 344 340 339 343 339 342 340 336 338 335 nan 343 nan nan nan nan
274 277 282 280 280 280 281 284 282 276 273 269 270 269 270 263 267 269 271 270 274 277 276 276 280 287 307 306 299 304 309 309 320 322 331 313 319 320 325 330 328 332 332 342 333 334 342 348 nan nan nan nan nan 13 10 354 355 356 352 353 360 0 350 351 351 347 339 339 340 344 344 342 345 347 346 344 342 334 338 nan nan nan nan nan nan
273 274 275 276 278 277 279 280 274 269 269 269 266 266 262 257 265 266 269 272 264 260 261 266 273 276 278 282 301 302 308 295 293 291 277 270 275 284 315 324 321 333 333 343 340 335 344 341 nan nan nan nan nan 357 1 356 352 358 354 356 353 354 346 351 354 342 343 339 339 344 343 344 347 352 352 353 349 343 343 343 345 323 nan nan nan
271 272 274 273 274 279 278 270 264 262 261 260 259 261 259 257 254 263 266 271 270 265 267 268 271 268 272 283 293 306 297 287 276 277 268 268 274 293 302 297 292 300 314 315 307 322 332 327 331 331 343 339 nan nan nan nan 346 351 357 354 349 347 348 342 343 344 342 332 340 343 342 345 347 351 355 356 354 351 346 345 343 332 nan nan nan
270 272 270 271 271 267 265 264 261 256 252 254 257 251 249 251 250 248 252 255 269 262 257 253 259 265 265 280 297 292 290 290 299 288 286 291 294 308 308 309 314 310 319 323 322 318 316 317 326 341 343 338 334 335 nan nan nan 340 345 347 348 342 340 336 340 341 339 339 338 341 343 344 346 348 351 352 357 356 351 349 347 337 330 nan nan
270 271 270 270 267 266 266 263 261 257 254 254 252 251 250 250 255 257 254 247 250 250 252 257 261 269 278 285 286 280 291 307 306 301 305 314 315 322 327 322 327 320 329 328 327 326 328 330 332 336 335 334 334 338 338 345 nan nan 341 339 340 335 336 337 336 338 340 342 337 338 343 343 346 346 347 350 353 357 356 353 351 344 337 nan nan
268 270 268 266 265 266 264 262 260 257 259 256 250 251 252 254 257 259 259 256 253 254 258 257 256 259 259 264 272 289 297 302 316 314 316 313 324 334 339 317 312 323 323 316 320 320 326 330 329 332 337 332 335 338 343 338 337 341 337 337 338 333 338 338 337 334 327 328 323 328 338 343 344 347 348 348 350 353 355 353 351 350 346 329 345
265 265 262 264 266 264 262 260 255 252 251 249 248 250 253 258 258 261 262 257 253 252 246 245 247 251 259 261 275 285 301 314 311 314 319 325 342 350 335 325 320 327 326 314 321 317 319 325 327 333 334 336 336 336 340 345 338 335 340 324 324 331 331 332 330 316 318 326 329 330 333 336 343 344 348 348 349 350 351 352 352 352 347 338 342
247 255 259 261 262 259 257 253 249 248 247 251 251 248 246 244 252 251 248 256 253 251 250 254 255 256 262 262 266 280 278 306 314 317 314 332 342 356 342 339 336 338 327 318 312 321 317 320 323 318 323 330 334 333 337 333 332 332 328 322 318 329 322 320 313 306 321 317 323 318 318 326 328 339 346 348 349 347 349 350 352 355 352 344 340
242 248 256 256 251 248 249 250 252 249 245 245 249 259 267 265 251 247 248 254 258 257 253 250 257 257 261 263 266 279 281 280 301 308 324 338 358 353 350 348 342 323 319 320 317 311 316 315 312 320 323 326 331 335 331 333 335 332 327 327 329 329 325 322 327 327 330 326 325 320 315 317 316 315 332 347 347 345 345 345 348 351 353 348 346
242 251 252 253 248 246 246 250 248 249 254 262 264 270 258 247 246 241 247 251 253 262 269 270 265 265 261 269 266 269 281 281 288 288 296 340 7 351 348 344 335 327 324 321 323 327 328 322 316 321 324 331 328 328 330 329 327 331 332 328 330 328 326 329 328 326 331 333 326 330 325 318 317 322 324 331 338 343 342 342 344 348 351 348 346
233 240 241 239 236 240 244 248 253 258 261 261 261 253 250 252 243 239 245 254 259 265 268 265 260 256 257 256 270 269 270 261 245 262 349 352 350 346 341 343 334 337 325 323 323 321 324 323 322 326 325 324 326 329 326 334 334 335 333 330 329 331 333 327 328 328 327 325 335 335 331 320 320 327 322 319 311 322 341 344 344 346 348 348 348
238 237 242 244 244 242 245 247 251 255 258 256 252 251 248 255 253 246 243 247 255 253 253 256 261 263 258 264 247 246 251 246 298 356 345 319 323 328 332 327 330 326 324 315 324 329 321 315 314 320 322 322 324 323 331 334 338 338 337 336 335 335 334 334 330 329 328 331 336 338 335 330 324 328 325 325 320 316 333 347 346 346 346 345 345
251 256 248 248 250 252 252 254 252 248 251 254 250 247 239 235 245 240 239 236 239 245 254 259 263 256 255 249 238 235 252 319 355 321 306 328 320 308 311 319 322 317 314 326 323 310 311 311 315 319 324 323 327 328 328 330 331 334 335 334 335 334 333 334 332 332 333 333 332 338 341 331 329 327 331 324 315 323 332 333 345 347 346 344 345
255 252 253 253 253 254 252 249 246 246 248 252 253 252 241 237 236 232 233 235 242 244 248 252 252 253 245 239 266 312 348 321 297 295 303 302 295 303 307 302 301 306 312 315 321 317 316 319 321 320 321 325 325 325 326 328 330 330 332 331 334 338 335 335 333 333 334 335 333 331 330 329 326 327 325 320 327 336 332 321 319 326 331 345 345
255 253 255 249 245 248 250 251 249 252 253 254 260 262 255 237 230 237 240 241 249 248 243 251 253 246 244 283 299 315 300 288 294 302 297 295 299 297 295 296 302 303 305 306 307 310 310 312 312 320 315 318 317 317 319 317 325 330 335 339 340 341 338 337 332 331 334 331 333 330 329 327 326 329 329 323 319 329 332 326 322 321 324 334 347
269 266 260 258 259 259 261 260 255 253 250 250 253 262 260 247 228 231 243 243 238 239 241 241 250 262 293 303 309 295 290 293 294 289 291 289 292 295 297 299 301 303 304 304 305 305 307 306 310 309 309 305 310 313 316 316 321 327 328 330 331 336 341 337 335 334 331 332 328 329 330 328 328 329 331 330 326 330 335 334 325 322 325 324 331
275 265 259 259 262 264 264 261 257 252 254 253 258 258 248 243 236 231 228 246 241 227 226 229 257 275 275 279 270 292 305 293 289 288 284 288 294 295 296 295 294 297 299 296 301 301 302 303 303 303 303 305 309 310 314 308 314 312 309 314 322 327 333 328 324 325 330 330 327 326 324 326 327 325 324 325 326 327 328 330 328 326 321 317 317
279 267 256 254 253 256 262 260 255 255 254 250 247 245 239 239 246 239 235 231 235 217 250 275 286 281 282 290 296 287 284 283 284 284 285 284 286 289 292 295 296 297 298 301 297 294 296 299 299 303 304 305 309 310 307 307 308 304 311 317 309 304 309 308 314 321 327 327 324 323 324 324 325 322 321 322 326 328 323 323 331 332 324 322 323
278 267 256 256 255 258 264 263 259 255 248 242 240 243 241 227 232 237 238 231 239 234 242 251 259 275 288 287 281 280 277 276 276 278 283 284 284 285 289 289 288 287 288 290 292 292 294 295 293 295 297 297 297 299 300 303 304 300 300 300 307 309 307 304 303 310 322 323 323 323 319 320 318 317 315 320 323 325 323 318 322 326 332 331 322
273 267 261 259 259 265 266 262 259 251 239 241 248 241 238 225 217 219 226 213 207 208 232 275 301 293 285 282 280 280 275 275 275 273 277 280 281 284 284 288 290 290 293 293 291 291 292 295 292 292 289 292 291 296 295 291 296 304 304 298 300 301 298 298 291 308 301 299 312 318 316 315 316 316 315 316 317 320 323 324 323 321 324 325 331
271 265 262 260 260 254 252 252 249 245 239 237 245 244 236 228 223 218 218 216 212 279 321 303 291 287 283 281 274 274 277 274 274 275 276 279 282 283 285 286 289 288 290 289 291 291 289 287 287 289 287 287 291 291 288 290 287 292 295 304 308 303 298 294 295 296 293 304 298 301 307 313 314 312 310 311 314 316 317 321 320 320 321 325 329
269 263 260 260 261 254 247 243 240 238 230 232 241 243 241 236 229 227 222 258 311 309 300 292 285 286 284 279 277 276 276 278 275 275 nan 280 284 284 284 283 nan nan nan nan 288 288 nan nan nan 288 288 288 287 288 286 290 290 290 286 288 292 297 299 294 293 291 289 291 296 295 293 298 303 307 311 311 311 313 314 315 316 316 316 320 326
273 265 262 259 256 250 242 236 231 225 221 231 240 231 244 262 271 257 300 316 312 292 282 279 281 280 277 278 283 281 nan nan nan nan nan nan nan nan nan nan nan nan nan nan nan nan nan nan nan nan nan nan nan 288 289 289 288 290 285 287 286 287 284 285 289 290 290 288 283 290 293 285 291 303 310 310 309 308 308 309 311 310 311 315 318
275 270 264 257 250 246 241 239 235 227 232 250 248 230 251 268 270 294 294 295 293 289 283 278 277 277 281 284 284 nan nan nan nan nan nan nan nan nan nan nan nan nan nan nan nan nan nan nan nan nan nan nan nan nan nan nan 288 288 nan nan 287 nan nan 288 286 284 284 282 284 281 279 284 290 295 290 293 302 303 304 306 306 304 305 310 313
265 259 259 260 252 247 245 246 246 244 247 252 264 270 275 280 280 282 284 282 278 273 275 277 279 284 285 286 288 nan nan nan nan nan nan nan nan nan nan nan nan nan nan nan nan nan nan nan nan nan nan nan nan nan nan nan nan nan nan nan nan nan nan nan nan nan nan 285 285 279 278 274 274 280 286 288 284 294 304 305 304 304 303 305 307
260 255 261 267 264 259 256 nan 256 256 253 251 247 249 257 263 262 266 271 271 271 277 281 283 285 285 287 nan nan nan nan nan nan nan nan nan nan nan nan nan nan nan nan nan nan nan nan nan nan nan nan nan nan nan nan nan nan nan nan nan nan nan nan nan nan nan nan nan nan nan nan nan nan nan 276 274 280 281 287 299 304 303 304 303 305